Regional Weather Roundup
Issued by NWS Little Rock, AR

Home | Current Version | Previous Version | Text Only | Print | Product List | Glossary Off
Versions: 1 2 3 4 5 6 7 8 9 10 11 12 13 14 15 16 17 18 19 20 21 22 23 24 25 26 27 28 29 30 31 32 33 34 35 36 37 38 39 40 41 42 43 44 45 46 47 48 49 50

000
ASUS44 KLZK 301705
RWRLZK

WEATHER ROUNDUP FOR ARKANSAS
NATIONAL WEATHER SERVICE LITTLE ROCK AR
1200 PM CDT SAT JUL 30 2016

NOTE: "FAIR" INDICATES FEW OR NO CLOUDS BELOW 12,000 FEET WITH NO
SIGNIFICANT WEATHER AND/OR OBSTRUCTIONS TO VISIBILITY.

ARZ001-003-010-029-301800-
NORTHWEST ARKANSAS

CITY           SKY/WX    TMP DP  RH WIND       PRES   REMARKS
FAYETTEVILLE   CLOUDY    82  74  76 S6        30.05R HX  88
FORT SMITH     PTSUNNY   87  69  54 CALM      30.00S HX  91
HARRISON       SUNNY     85  71  63 N7        30.05S HX  90
BENTONVILLE    PTSUNNY   84  70  61 W5        30.07R HX  88
ROGERS         PTSUNNY   85  71  63 VRB5      30.06S HX  90
SILOAM SPGS    PTSUNNY   84  66  54 CALM      30.05S HX  86
HIGHFILL       PTSUNNY   84  74  71 SW6       30.05R HX  91
SPRINGDALE     PTSUNNY   82  72  69 W6        30.07R HX  87
$$

ARZ004-005-016-301800-
NORTH CENTRAL ARKANSAS

CITY           SKY/WX    TMP DP  RH WIND       PRES   REMARKS
BATESVILLE     SUNNY     84  72  65 CALM      30.02S HX  89
FLIPPIN        PTSUNNY   84  73  70 S5        30.01S HX  91
MTN HOME       MOSUNNY   82  72  71 CALM      30.04R HX  87
$$

ARZ040-041-301800-
WEST CENTRAL ARKANSAS

CITY           SKY/WX    TMP DP  RH WIND       PRES   REMARKS
MENA             N/A    N/A N/A N/A MISG        N/A
MOUNT IDA      SUNNY     87  74  64 VRB3      30.01F HX  95
$$

ARZ009-017-025-026-028-301800-
NORTHEAST ARKANSAS

CITY           SKY/WX    TMP DP  RH WIND       PRES   REMARKS
CORNING          N/A     82  75  78 CALM      30.02S HX  89
JONESBORO      PTSUNNY   82  72  71 NW6       30.01S HX  87
NEWPORT        MOSUNNY   86  74  67 VRB6      30.03R HX  94
WALNUT RIDGE   SUNNY     82  70  65 CALM      30.01S HX  86
BLYTHEVILLE    MOSUNNY   85  74  69 VRB6      30.01S HX  92
$$

ARZ022-023-033-042-044-301800-
CENTRAL ARKANSAS

CITY           SKY/WX    TMP DP  RH WIND       PRES   REMARKS
LITTLE ROCK    PTSUNNY   89  72  56 CALM      30.01F HX  96
N LITTLE ROCK    N/A     83  74  74 CALM      30.00S HX  90
JACKSONVILLE   SUNNY     83  75  75 VRB2      30.02S HX  91
SEARCY         MOSUNNY   84  76  76 VRB3      30.17R HX  93
HOT SPRINGS    MOSUNNY   84  69  60 CALM      30.04S HX  88
RUSSELLVILLE   MOSUNNY   83  74  74 VRB3      30.02S HX  89
$$

ARZ036-301800-
EAST ARKANSAS

CITY           SKY/WX    TMP DP  RH WIND       PRES   REMARKS
WEST MEMPHIS   PTSUNNY   82  74  76 SW6       30.01S HX  88
$$

ARZ050-053-066-070-073-301800-
SOUTHWEST ARKANSAS

CITY           SKY/WX    TMP DP  RH WIND       PRES   REMARKS
ARKADELPHIA    FAIR      86  76  71 W7        30.02F HX  96
CAMDEN         SUNNY     90  73  58 W5        30.02F HX  98
TEXARKANA      SUNNY     91  72  53 W13       30.02S HX  98
EL DORADO      SUNNY     89  75  63 SW8       30.03F HX  99
DE QUEEN       SUNNY     86  76  71 SW5       30.00S HX  96
$$

ARZ056-057-069-301800-
SOUTHEAST ARKANSAS

CITY           SKY/WX    TMP DP  RH WIND       PRES   REMARKS
PINE BLUFF     SUNNY     87  71  58 VRB6      30.02S HX  93
STUTTGART      SUNNY     88  73  62 SW3       30.02F HX  96
MONTICELLO     SUNNY     89  75  63 W8        30.03S HX  99

$$





USA.gov is the U.S. government's official web portal to all federal, state and local government web resources and services.